Location: Marion Hill
(40.7303°N, 80.2959°W)
Time: 08:42:25
(UTC+00:00)

IRS-1C Rocket - Pass Details

Date: 29 October 2020
Orbit: 801 x 805 km, 99.0° (Epoch: 26 November)

Event Time Altitude Azimuth Distance (km) Brightness Sun altitude
Rises 23:30:21 0° 163° (SSE) 3,299 7.2 -13.8°
Reaches altitude 10° 23:32:40 10° 163° (SSE) 2,374 6.4 -14.2°
Maximum altitude 23:37:55 86° 76° (ENE) 812 4.0 -15.2°
Drops below altitude 10° 23:43:13 10° 347° (NNW) 2,393 6.7 -16.2°
Sets 23:45:34 0° 347° (NNW) 3,328 7.4 -16.6°
